| time (UTC) | temp F | wind direction | speed knots | gust knots | rain 1hr in | rain 24hr in | rain mn in | humidity % | barometer mb |
| 20260905063038 | 60 | 217 | 0.0 | 0.9 | 0.00 | 0.02 | 0.02 | 73 | 1013.3 |
| 20260905061553 | 60 | 230 | 0.0 | 0.0 | 0.00 | 0.02 | 0.02 | 71 | 1013.3 |
| 20260905060053 | 60 | 231 | 0.0 | 1.7 | 0.00 | 0.02 | 0.02 | 70 | 1013.2 |
| 20260905054553 | 61 | 200 | 0.0 | 0.9 | 0.00 | 0.02 | 0.02 | 68 | 1013.3 |
| 20260905053135 | 61 | 328 | 0.0 | 0.0 | 0.00 | 0.02 | 0.02 | 68 | 1013.2 |
| 20260905051553 | 61 | 329 | 0.0 | 0.0 | 0.00 | 0.02 | 0.02 | 67 | 1013.1 |
| 20260905050052 | 62 | 329 | 0.0 | 0.0 | 0.00 | 0.02 | 0.02 | 67 | 1013.2 |
| 20260905044553 | 62 | 329 | 0.0 | 0.0 | 0.00 | 0.02 | 0.02 | 68 | 1013.2 |
| 20260905043052 | 63 | 329 | 0.0 | 0.0 | 0.00 | 0.02 | 0.02 | 64 | 1013.1 |
| 20260905041554 | 65 | 329 | 0.0 | 0.0 | 0.00 | 0.02 | 0.02 | 61 | 1013.0 |
| 20260905040052 | 66 | 341 | 0.0 | 0.9 | 0.00 | 0.02 | 0.02 | 59 | 1012.8 |
| 20260905034553 | 67 | 347 | 0.0 | 4.3 | 0.00 | 0.02 | 0.02 | 57 | 1012.7 |
| 20260905033059 | 68 | 326 | 0.0 | 5.2 | 0.00 | 0.02 | 0.02 | 55 | 1012.5 |
| 20260905031554 | 69 | 348 | 0.0 | 7.0 | 0.00 | 0.02 | 0.02 | 53 | 1012.4 |
| 20260905030052 | 69 | 295 | 0.0 | 0.0 | 0.00 | 0.02 | 0.02 | 41 | 1012.2 |
| 20260905024602 | 71 | 295 | 0.0 | 0.0 | 0.00 | 0.02 | 0.02 | 38 | 1012.0 |
| 20260905023055 | 72 | 295 | 0.0 | 0.0 | 0.00 | 0.02 | 0.02 | 35 | 1012.0 |
| 20260905021552 | 75 | 312 | 0.0 | 1.7 | 0.00 | 0.02 | 0.02 | 31 | 1012.0 |
| 20260905020104 | 77 | 354 | 0.0 | 0.9 | 0.00 | 0.02 | 0.02 | 29 | 1012.0 |
| 20260905014553 | 77 | 336 | 0.0 | 3.5 | 0.00 | 0.02 | 0.02 | 29 | 1012.0 |
| 20260905013021 | 77 | 244 | 0.0 | 6.1 | 0.00 | 0.02 | 0.02 | 31 | 1011.9 |
| 20260905011521 | 78 | 300 | 0.0 | 7.8 | 0.00 | 0.02 | 0.02 | 33 | 1011.8 |
| 20260905010024 | 78 | 329 | 0.0 | 4.3 | 0.00 | 0.02 | 0.02 | 36 | 1011.9 |
| 20260905004524 | 78 | 347 | 1.7 | 5.2 | 0.00 | 0.02 | 0.02 | 36 | 1011.8 |
| 20260905003021 | 79 | 255 | 0.0 | 7.0 | 0.00 | 0.02 | 0.02 | 37 | 1011.8 |
| 20260905001521 | 79 | 221 | 0.9 | 7.0 | 0.00 | 0.02 | 0.02 | 36 | 1011.8 |
| 20260905000021 | 79 | 297 | 0.0 | 3.5 | 0.00 | 0.02 | 0.02 | 36 | 1011.9 |
| 20260904234521 | 79 | 200 | 0.9 | 5.2 | 0.00 | 0.02 | 0.02 | 38 | 1012.0 |
| 20260904233021 | 79 | 311 | 0.0 | 5.2 | 0.00 | 0.02 | 0.02 | 38 | 1012.1 |
| 20260904231532 | 79 | 1 | 2.6 | 6.1 | 0.00 | 0.02 | 0.02 | 38 | 1012.1 |
| 20260904230023 | 79 | 262 | 2.6 | 7.0 | 0.00 | 0.02 | 0.02 | 39 | 1012.2 |
| 20260904224520 | 79 | 5 | 1.7 | 7.0 | 0.00 | 0.02 | 0.02 | 38 | 1012.4 |
| 20260904223005 | 79 | 302 | 0.0 | 7.8 | 0.00 | 0.02 | 0.02 | 39 | 1012.5 |
| 20260904221505 | 78 | 22 | 0.0 | 4.3 | 0.00 | 0.02 | 0.02 | 41 | 1012.4 |
| 20260904220021 | 77 | 1 | 0.9 | 9.6 | 0.00 | 0.02 | 0.02 | 42 | 1012.5 |
| 20260904214532 | 78 | 326 | 1.7 | 5.2 | 0.00 | 0.02 | 0.02 | 40 | 1012.5 |
| 20260904213005 | 77 | 168 | 4.3 | 9.6 | 0.00 | 0.02 | 0.02 | 41 | 1012.5 |
| 20260904211506 | 77 | 338 | 0.0 | 4.3 | 0.00 | 0.02 | 0.02 | 42 | 1012.6 |
| 20260904210043 | 78 | 330 | 0.0 | 7.8 | 0.00 | 0.02 | 0.02 | 42 | 1012.6 |
| 20260904180104 | 68 | 185 | 1.7 | 6.1 | 0.00 | 0.02 | 0.02 | 68 | 1013.5 |
| 20260904174604 | 67 | 158 | 2.6 | 6.1 | 0.00 | 0.02 | 0.02 | 70 | 1013.6 |
| 20260904173128 | 66 | 195 | 0.0 | 5.2 | 0.01 | 0.02 | 0.02 | 76 | 1013.6 |
| 20260904171611 | 65 | 195 | 0.0 | 3.5 | 0.01 | 0.02 | 0.02 | 78 | 1013.4 |
| 20260904170108 | 65 | 276 | 0.0 | 5.2 | 0.01 | 0.02 | 0.02 | 78 | 1013.3 |
| 20260904164504 | 64 | 200 | 0.9 | 4.3 | 0.00 | 0.01 | 0.01 | 80 | 1013.2 |
| 20260904163018 | 62 | 148 | 0.0 | 2.6 | 0.00 | 0.01 | 0.01 | 85 | 1013.2 |
| 20260904161605 | 61 | 229 | 0.0 | 2.6 | 0.00 | 0.01 | 0.01 | 87 | 1013.1 |
| 20260904160106 | 60 | 266 | 0.0 | 3.5 | 0.00 | 0.01 | 0.01 | 88 | 1013.1 |
| 20260904154603 | 60 | 335 | 0.0 | 0.9 | 0.00 | 0.01 | 0.01 | 89 | 1013.0 |
| 20260904153103 | 59 | 290 | 0.9 | 5.2 | 0.00 | 0.01 | 0.01 | 89 | 1012.9 |
| 20260904151503 | 60 | 247 | 0.0 | 4.3 | 0.00 | 0.01 | 0.01 | 90 | 1012.9 |
| 20260904150011 | 60 | 353 | 0.0 | 2.6 | 0.00 | 0.01 | 0.01 | 90 | 1012.9 |
| 20260904144504 | 60 | 285 | 0.0 | 3.5 | 0.00 | 0.01 | 0.01 | 91 | 1012.7 |
| 20260904143003 | 60 | 297 | 0.0 | 3.5 | 0.00 | 0.01 | 0.01 | 91 | 1012.4 |
| 20260904141503 | 60 | 282 | 0.0 | 2.6 | 0.00 | 0.01 | 0.01 | 91 | 1012.2 |
| 20260904140003 | 60 | 252 | 0.9 | 3.5 | 0.00 | 0.01 | 0.01 | 91 | 1012.0 |
| 20260904134510 | 60 | 240 | 0.0 | 1.7 | 0.00 | 0.01 | 0.01 | 91 | 1011.8 |
| 20260904133048 | 60 | 251 | 0.0 | 0.0 | 0.00 | 0.01 | 0.01 | 91 | 1011.7 |
| 20260904131521 | 60 | 276 | 0.0 | 0.9 | 0.00 | 0.01 | 0.01 | 91 | 1011.7 |
| 20260904130030 | 60 | 247 | 0.9 | 0.0 | 0.00 | 0.00 | 0.01 | 90 | 1011.5 |
| 20260904124528 | 60 | 267 | 0.0 | 3.5 | 0.00 | 0.01 | 0.01 | 90 | 1011.5 |
| 20260904123032 | 61 | 259 | 0.0 | 4.3 | 0.00 | 0.01 | 0.01 | 90 | 1011.4 |
| 20260904121543 | 61 | 295 | 0.0 | 6.1 | 0.00 | 0.01 | 0.01 | 90 | 1011.2 |
| 20260904120050 | 61 | 241 | 0.0 | 2.6 | 0.00 | 0.01 | 0.01 | 91 | 1011.2 |
| 20260904114548 | 61 | 244 | 0.0 | 2.6 | 0.00 | 0.01 | 0.01 | 91 | 1011.2 |
| 20260904113050 | 61 | 298 | 0.0 | 2.6 | 0.00 | 0.01 | 0.01 | 91 | 1011.1 |
| 20260904111547 | 61 | 243 | 0.0 | 0.9 | 0.00 | 0.01 | 0.01 | 91 | 1011.1 |
| 20260904110047 | 61 | 256 | 0.0 | 1.7 | 0.00 | 0.01 | 0.01 | 91 | 1011.0 |
| 20260904104549 | 61 | 248 | 0.0 | 2.6 | 0.00 | 0.01 | 0.01 | 91 | 1010.9 |
| 20260904103047 | 62 | 270 | 0.0 | 1.7 | 0.00 | 0.01 | 0.01 | 92 | 1010.9 |
| 20260904101546 | 62 | 309 | 0.0 | 0.9 | 0.00 | 0.01 | 0.01 | 92 | 1010.8 |
| 20260904100050 | 62 | 310 | 0.0 | 0.0 | 0.00 | 0.01 | 0.01 | 92 | 1010.7 |
| 20260904094554 | 62 | 266 | 0.0 | 0.9 | 0.00 | 0.01 | 0.01 | 92 | 1010.8 |
| 20260904093051 | 61 | 341 | 0.0 | 0.9 | 0.00 | 0.01 | 0.01 | 92 | 1010.6 |
| 20260904091547 | 62 | 300 | 0.0 | 2.6 | 0.00 | 0.01 | 0.01 | 92 | 1010.6 |
| 20260904090047 | 62 | 310 | 0.0 | 2.6 | 0.00 | 0.01 | 0.01 | 92 | 1010.7 |
| 20260904084547 | 62 | 347 | 0.0 | 2.6 | 0.01 | 0.01 | 0.01 | 92 | 1010.7 |
| 20260904083048 | 62 | 354 | 0.0 | 3.5 | 0.01 | 0.01 | 0.01 | 91 | 1010.8 |
| 20260904081547 | 62 | 293 | 0.0 | 3.5 | 0.01 | 0.01 | 0.01 | 90 | 1010.7 |
| 20260904080046 | 63 | 221 | 0.9 | 3.5 | 0.01 | 0.01 | 0.01 | 88 | 1010.7 |
| 20260904074546 | 64 | 324 | 0.0 | 2.6 | 0.00 | 0.00 | 0.00 | 85 | 1010.9 |
| 20260904073049 | 65 | 317 | 0.0 | 2.6 | 0.00 | 0.00 | 0.00 | 80 | 1011.0 |
| 20260904071517 | 65 | 326 | 0.0 | 5.2 | 0.00 | 0.00 | 0.00 | 79 | 1010.9 |
| 20260904070041 | 65 | 342 | 0.0 | 4.3 | 0.00 | 0.00 | 0.00 | 78 | 1010.9 |
| 20260904064541 | 66 | 9 | 0.0 | 2.6 | 0.00 | 0.00 | 0.00 | 77 | 1010.8 |